Vertical_Velocity
-2 -1 -5 -4 -11 0 4 1 1 -3 -3 1 1 4 3 1 -2 -1 4 -2 -3 -0 -1 -5 -2 -3 -3
-2 1 -4 6 -15 2 1 1 4 4 -5 1 -3 4 6 8 1 -4 -1 -1 -4 -2 4 -2 3 -4 0
-4 5 -2 10 -7 -1 -2 1 0 -1 3 -0 -4 2 22 6 1 6 -1 -3 1 2 -4 5 -3 -1 2
-2 4 1 9 2 -1 1 -1 -4 -2 -2 -3 -2 2 25 6 -1 7 -4 -1 2 -1 3 3 -2 0 0
2 4 3 -2 -3 -3 11 8 -6 -4 -3 -1 -4 0 7 6 7 5 -0 0 -1 1 0 -1 1 1 1
-1 -3 1 -2 8 -3 -2 -1 -4 -12 -2 6 1 -7 -8 7 3 3 0 -4 -2 -1 -1 3 -0 0 -0
0 -1 3 6 5 -2 -2 0 -1 -5 -1 1 6 3 8 5 4 -0 1 -3 -1 -1 2 1 -0 0 -0
-4 5 -3 -6 -2 -2 6 5 2 -3 4 -1 0 10 11 3 2 0 -0 -1 0 -1 3 -1 -0 -0 0
1 -4 -0 -1 2 -3 -0 1 0 -4 -2 4 1 3 3 4 1 1 -1 -0 -1 3 -1 -0 1 -1 -0
1 1 0 -2 -0 4 -0 2 -1 4 0 5 5 -2 1 3 -2 -1 -2 1 2 2 -0 1 -0 1 2
2 -4 1 -2 5 -2 -0 0 2 0 -1 3 -2 1 -2 -3 -0 -0 -1 2 2 1 -0 0 0 1 1
-2 0 -2 -1 2 -0 0 -2 -2 -3 3 1 1 -4 -5 -1 -4 -2 -0 1 1 1 1 -0 -0 1 0
-2 -2 2 -1 2 -0 -3 -0 2 3 1 -1 5 7 8 -3 -6 -4 -1 -0 1 0 -0 -1 1 1 0
1 -1 1 4 0 -2 -0 1 1 2 1 3 5 6 2 5 7 -3 0 0 0 0 -0 0 0 0 1
0 3 2 -2 -2 1 0 2 1 0 -1 3 5 12 11 5 -4 -3 1 1 -0 -0 -0 0 1 1 1
1 1 -0 -1 -1 -1 1 -0 1 1 2 3 4 3 2 1 -2 1 0 1 -0 -0 -0 1 1 -0 -0
-0 -0 -0 -1 -2 -1 -0 1 1 2 5 4 5 4 -1 -4 -2 -2 3 0 -0 -1 0 1 1 0 -0
Height
1500 1501 1501 1502 1502 1503 1502 1500 1499 1500 1502 1501 1501 1502 1503 1504 1503 1504 1504 1502 1503 1501 1499 1498 1498 1496 1498
1489 1492 1493 1493 1494 1496 1497 1495 1496 1495 1497 1497 1497 1498 1498 1498 1499 1500 1500 1499 1500 1500 1498 1497 1495 1496 1497
1477 1482 1483 1485 1485 1488 1491 1491 1492 1493 1493 1492 1493 1492 1491 1493 1495 1497 1496 1497 1497 1498 1496 1495 1494 1495 1495
1471 1473 1475 1475 1478 1482 1482 1484 1486 1485 1486 1486 1488 1490 1488 1489 1492 1492 1492 1494 1495 1495 1495 1493 1493 1494 1493
1460 1463 1465 1466 1468 1473 1475 1476 1479 1480 1480 1478 1480 1485 1486 1484 1487 1489 1489 1491 1493 1493 1493 1492 1492 1492 1491
1451 1454 1458 1462 1463 1466 1469 1471 1471 1475 1474 1472 1473 1478 1482 1483 1484 1485 1487 1488 1491 1492 1492 1491 1490 1490 1489
1444 1449 1452 1455 1460 1461 1464 1466 1464 1469 1470 1469 1471 1474 1477 1479 1481 1484 1485 1487 1489 1490 1490 1488 1488 1488 1488
1438 1444 1447 1449 1453 1456 1460 1459 1461 1463 1465 1467 1470 1472 1474 1477 1479 1481 1483 1486 1487 1488 1488 1487 1487 1487 1487
1435 1439 1444 1447 1449 1450 1454 1456 1457 1459 1461 1464 1466 1470 1473 1475 1478 1480 1482 1484 1485 1486 1485 1485 1485 1485 1486
1432 1436 1439 1442 1444 1445 1449 1450 1451 1455 1456 1461 1463 1467 1472 1474 1476 1478 1480 1482 1484 1484 1484 1484 1484 1485 1485
1430 1434 1436 1438 1439 1440 1443 1445 1447 1451 1454 1456 1460 1463 1465 1469 1474 1477 1479 1481 1482 1482 1482 1483 1483 1484 1485
1430 1432 1434 1433 1434 1435 1437 1441 1444 1446 1449 1452 1455 1457 1460 1465 1469 1474 1477 1478 1479 1481 1481 1482 1482 1483 1484
1428 1430 1430 1430 1430 1432 1434 1437 1439 1441 1444 1447 1450 1454 1459 1462 1465 1470 1474 1476 1477 1479 1480 1481 1482 1483 1484
1427 1428 1428 1428 1428 1430 1432 1434 1436 1439 1441 1445 1449 1453 1458 1463 1466 1469 1472 1474 1475 1477 1479 1480 1482 1483 1485
1426 1426 1426 1426 1428 1429 1431 1433 1435 1437 1440 1444 1448 1453 1458 1461 1464 1468 1470 1472 1474 1476 1478 1480 1481 1483 1484
1424 1424 1425 1427 1429 1430 1432 1434 1437 1439 1441 1444 1448 1452 1456 1460 1464 1467 1469 1471 1473 1475 1477 1479 1481 1482 1484
1423 1424 1425 1428 1430 1432 1434 1437 1438 1441 1444 1446 1449 1453 1455 1459 1463 1465 1468 1470 1472 1474 1476 1478 1480 1481 1483